Weather History for Christchurch, New Zealand

Change the Weather History Date:

Sunday, October 13, 2013

  Actual Average Record
Temperature  
Mean Temperature 51 °F -  
Max Temperature 69 °F 60 °F - ()
Min Temperature 33 °F 42 °F - ()
Degree Days  
Heating Degree Days 14    
Growing Degree Days 1 (Base 50)    
Moisture  
Dew Point 42 °F    
Average Humidity 72    
Maximum Humidity 100    
Minimum Humidity 38    
Precipitation  
Precipitation 0.00 in - - ()
Sea Level Pressure  
Sea Level Pressure 29.59 in    
Wind  
Wind Speed 7 mph ()    
Max Wind Speed 24 mph    
Max Gust Speed 33 mph    
Visibility 6.1 miles    
Events Fog    
T = Trace of Precipitation, MM = Missing Value Source: Averaged Metar Reports

Daily Weather History Graph

Daily Weather History Graph

Search for Another Location

Airport:

Trip Planner

Search our weather history database for the weather conditions in past years. The results will help you decide how hot, cold, wet, or windy it might be!

Date:

Astronomy

Oct. 13, 2013 Rise Set
Actual Time 6:42 AM NZDT 7:50 PM NZDT
Civil Twilight 6:12 AM NZDT 8:20 PM NZDT
Nautical Twilight 5:37 AM NZDT 8:55 PM NZDT
Astronomical Twilight 5:00 AM NZDT 9:32 PM NZDT
Moon 1:27 PM NZDT (10/13) 2:59 AM NZDT (10/13)
Length of Visible Light 14h 07m
Length of Day
13h 08m
First Quarter, 61% of the Moon is Illuminated
Oct 13
First Quarter
Oct 19
Full
Oct 27
Last Quarter
Nov 4
New
Nov 10
First Quarter

Hourly Weather History & Observations

Time (NZDT) Temp. Windchill Dew Point Humidity Pressure Visibility Wind Dir Wind Speed Gust Speed Precip Events Conditions
12:00 AM 42.8 °F - 42.8 °F 100% 29.56 in 6.2 mi WNW 1.2 mph - N/A   Overcast
12:30 AM 42.8 °F 41.1 °F 42.8 °F 100% 29.59 in 6.2 mi WNW 3.5 mph - N/A   Mostly Cloudy
1:00 AM 42.8 °F 41.1 °F 41.0 °F 93% 29.59 in 6.2 mi West 3.5 mph - N/A   Scattered Clouds
1:30 AM 42.8 °F - 41.0 °F 93% 29.59 in 6.2 mi Calm Calm - N/A   Partly Cloudy
2:00 AM 41.0 °F - 39.2 °F 93% 29.62 in 6.2 mi East 1.2 mph - N/A   Unknown
2:30 AM 39.2 °F - 39.2 °F 100% 29.62 in 5.6 mi Calm Calm - N/A Fog Fog
3:00 AM 37.4 °F - 37.4 °F 100% 29.62 in 5.6 mi West 1.2 mph - N/A Fog Fog
3:30 AM 37.4 °F - 35.6 °F 93% 29.62 in 6.2 mi West 2.3 mph - N/A   Unknown
4:00 AM 33.8 °F - 33.8 °F 100% 29.62 in 6.2 mi Calm Calm - N/A   Unknown
4:30 AM 35.6 °F - 35.6 °F 100% 29.65 in 5.6 mi North 1.2 mph - N/A Fog Fog
5:00 AM 37.4 °F 34.9 °F 37.4 °F 100% 29.65 in 6.2 mi NNW 3.5 mph - N/A   Unknown
5:30 AM 35.6 °F - 35.6 °F 100% 29.65 in 5.6 mi North 2.3 mph - N/A Fog Patches of Fog
6:00 AM 35.6 °F - 35.6 °F 100% 29.65 in 5.6 mi North 2.3 mph - N/A Fog Fog
6:30 AM 35.6 °F - 35.6 °F 100% 29.65 in 6.2 mi North 2.3 mph - N/A Fog Patches of Fog
7:00 AM 35.6 °F 32.8 °F 35.6 °F 100% 29.65 in 6.2 mi North 3.5 mph - N/A   Mostly Cloudy
7:30 AM 35.6 °F - 35.6 °F 100% 29.68 in 6.2 mi NNE 2.3 mph - N/A   Partly Cloudy
8:00 AM 39.2 °F 37.0 °F 39.2 °F 100% 29.68 in 6.2 mi NE 3.5 mph - N/A   Unknown
8:30 AM 42.8 °F 40.1 °F 41.0 °F 93% 29.68 in 6.2 mi NE 4.6 mph - N/A   Unknown
9:00 AM 48.2 °F - 42.8 °F 82% 29.65 in - ENE 8.1 mph - N/A   Clear
9:30 AM 50.0 °F - 42.8 °F 76% 29.65 in - ENE 9.2 mph - N/A   Clear
10:00 AM 53.6 °F - 46.4 °F 77% 29.65 in 6.2 mi ENE 13.8 mph - N/A   Unknown
10:30 AM 57.2 °F - 48.2 °F 72% 29.65 in 6.2 mi ENE 13.8 mph - N/A   Unknown
11:00 AM 57.2 °F - 46.4 °F 67% 29.65 in - ENE 15.0 mph - N/A   Clear
11:30 AM 57.2 °F - 46.4 °F 67% 29.62 in 6.2 mi ENE 13.8 mph - N/A   Unknown
12:00 PM 57.2 °F - 44.6 °F 63% 29.62 in 6.2 mi ENE 13.8 mph - N/A   Unknown
12:30 PM 57.2 °F - 46.4 °F 67% 29.59 in 6.2 mi ENE 11.5 mph - N/A   Unknown
1:00 PM 57.2 °F - 48.2 °F 72% 29.59 in - East 13.8 mph - N/A   Clear
1:30 PM 59.0 °F - 50.0 °F 72% 29.56 in 6.2 mi East 10.4 mph - N/A   Unknown
2:00 PM 62.6 °F - 53.6 °F 72% 29.56 in 6.2 mi ENE 9.2 mph - N/A   Unknown
2:30 PM 69.8 °F - 46.4 °F 43% 29.53 in - NW 16.1 mph - N/A   Clear
3:00 PM 69.8 °F - 44.6 °F 40% 29.53 in - NW 21.9 mph - N/A   Clear
3:30 PM 69.8 °F - 44.6 °F 40% 29.53 in 6.2 mi NW 24.2 mph - N/A   Unknown
4:00 PM 69.8 °F - 42.8 °F 38% 29.53 in 6.2 mi NW 21.9 mph - N/A   Unknown
4:30 PM 69.8 °F - 44.6 °F 40% 29.53 in 6.2 mi NW 18.4 mph - N/A   Unknown
5:00 PM 69.8 °F - 42.8 °F 38% 29.53 in 6.2 mi NW 19.6 mph - N/A   Unknown
5:30 PM 69.8 °F - 42.8 °F 38% 29.53 in 6.2 mi NW 17.3 mph - N/A   Unknown
6:00 PM 68.0 °F - 44.6 °F 43% 29.53 in 6.2 mi NNW 12.7 mph - N/A   Unknown
6:30 PM 66.2 °F - 46.4 °F 49% 29.53 in 6.2 mi NNW 12.7 mph - N/A   Unknown
7:00 PM 64.4 °F - 44.6 °F 49% 29.53 in 6.2 mi NW 17.3 mph - N/A   Unknown
7:30 PM 64.4 °F - 42.8 °F 45% 29.53 in 6.2 mi NW 17.3 mph - N/A   Unknown
8:00 PM 62.6 °F - 42.8 °F 48% 29.53 in 6.2 mi NW 18.4 mph 33.4 mph N/A   Unknown
8:30 PM 62.6 °F - 42.8 °F 48% 29.56 in 6.2 mi NW 13.8 mph - N/A   Unknown
9:00 PM 62.6 °F - 42.8 °F 48% 29.56 in 6.2 mi NNE 11.5 mph - N/A   Unknown
9:30 PM 59.0 °F - 42.8 °F 55% 29.56 in 6.2 mi North 10.4 mph - N/A   Unknown
10:00 PM 59.0 °F - 44.6 °F 59% 29.53 in 6.2 mi North 9.2 mph - N/A   Unknown
10:30 PM 55.4 °F - 44.6 °F 67% 29.53 in 6.2 mi NNE 10.4 mph - N/A   Unknown
11:00 PM 55.4 °F - 44.6 °F 67% 29.50 in 6.2 mi NE 10.4 mph - N/A   Unknown
11:30 PM 55.4 °F - 44.6 °F 67% 29.50 in 6.2 mi NE 11.5 mph - N/A   Unknown